Flag for Greenland Weather past 2 weeks in Qaanaaq, Greenland

Now
19 °F

Sunny.


Feels Like: 2 °F
Forecast: 4 / 16 °F
Wind: 23 mph from East

Location: Thule A. B.

Current Time: Apr 26, 2015 at 7:44:49 AM

Latest Report: Apr 26, 2015 at 6:58 AM


Visibility: N/A

Pressure: 30.35 "Hg

Humidity: 42%

Dew point: 0 °F

Location of QaanaaqLocation

Historic Weather in Qaanaaq — Graph

°F

Qaanaaq temperature yesterday

Maximum temperature yesterday: 27 °F (at 1:58 PM)
Minimum temperature yesterday: 9 °F (at 1:58 AM)
Average temperature yesterday: 20 °F

Past Weeks' High & Low Weather Summary

 TemperatureHumidityPressure
High27 °F (Apr 25, 1:58 PM)85% (Apr 20, 7:58 PM)30.90 "Hg (Apr 20, 7:58 PM)
Low-20 °F (Apr 15, 6:58 AM)32% (Apr 26, 5:58 AM)28.98 "Hg (Apr 15, 2:58 PM)
Average1 °F69%29.82 "Hg
* Reported Apr 11 5:58 AM — Apr 26 5:58 AM, Qaanaaq, Weather by CustomWeather, © 2015

Note: Actual official high and low records may vary slightly from our data, if they occured in-between our weather recording intervals... More about our weather records

Advertising

Qaanaaq weather history for previous 24 hours

 ConditionsComfort  
Time TempWeatherWind HumidityBarometerVisibility
5:58 AM
Sun, Apr 26
21 °FSunny.18 mph32%30.35 "HgN/A
4:58 AM21 °FSunny.23 mph35%30.36 "HgN/A
3:58 AM19 °FSunny.15 mph45%30.38 "HgN/A
2:58 AM19 °FSunny.3 mph53%30.38 "HgN/A
1:58 AM19 °FSunny.7 mph53%30.37 "HgN/A
12:58 AM18 °FSunny.12 mph73%30.38 "HgN/A
11:58 PM
Sat, Apr 25
18 °FSunny.6 mph73%30.40 "HgN/A
10:58 PM19 °FSunny.2 mph73%30.41 "HgN/A
9:58 PM24 °FSunny.No wind66%30.43 "HgN/A
8:58 PM25 °FSunny.No wind63%30.44 "HgN/A
7:58 PM25 °FSunny.No wind63%30.46 "HgN/A
6:58 PM25 °FSunny.2 mph63%30.49 "HgN/A
5:58 PM25 °FSunny.2 mph69%30.50 "HgN/A
4:58 PM27 °FSunny.7 mph59%30.51 "HgN/A
3:58 PM25 °FSunny.No wind50%30.52 "HgN/A
2:58 PM23 °FSunny.5 mph50%30.52 "HgN/A
1:58 PM27 °FSunny.2 mph50%30.52 "HgN/A
12:58 PM25 °FSunny.2 mph54%30.53 "HgN/A
11:58 AM25 °FSunny.No wind50%30.54 "HgN/A
10:58 AM21 °FSunny.No wind54%30.55 "HgN/A
9:58 AM19 °FSunny.No wind58%30.57 "HgN/A
8:58 AM16 °FSunny.No wind57%30.57 "HgN/A
7:58 AM16 °FSunny.7 mph57%30.58 "HgN/A
Weather by CustomWeather, © 2015

See weather overviewHow to use our weather pages